{"data":{"norad_id":43259,"intl_designator":"2018-031A","name":"GAOFEN-1 02","alt_names":[],"object_type":"PAYLOAD","status":"ACTIVE","operator":null,"country":"PRC","launch_date":"2018-03-31","launch_site_code":"TAISC","launch_vehicle":null,"mission":null,"orbit_class":"UNKNOWN","rcs_meters":null,"size_class":null,"mass_kg":null,"dimensions":null,"purposes":["earth_obs"],"wikipedia_slug":null,"has_3d_model":false,"image_url":null,"decayed_at":null,"tle_current":{"epoch":"2026-05-25T04:31:44.080032Z","epoch_age_seconds":65639,"freshness":"FRESH","line1":"1 43259U 18031A   26145.18870463  .00000280  00000+0  47739-4 0  9994","line2":"2 43259  98.0533 207.7783 0004646  86.3292 273.8449 14.76441117439309","mean_motion":14.76441117,"eccentricity":0.0004646,"inclination_deg":98.0533,"raan_deg":207.7783,"arg_perigee_deg":86.3292,"mean_anomaly_deg":273.8449,"bstar":4.7739e-5,"rev_number":43930,"period_min":97.531827271646,"perigee_km":637.3194618613,"apogee_km":643.8412540303,"semimajor_km":7018.7173579458,"source":"CELESTRAK","updated_at":"2026-05-25T13:38:12.829361Z"}}}